Location: Musselshell
(46.5176°N, 108.0911°W)
Time: 13:12:59
(UTC+00:00)

EO-88 - Pass Details

Date: 26 June 2022
Orbit: 453 x 461 km, 97.3° (Epoch: 13 August)

Event Time Altitude Azimuth Distance (km) Brightness Sun altitude
Exits shadow 05:48:52 - 233° (SW) 1,867 ? -17.4°
Reaches altitude 10° 05:50:04 10° 250° (WSW) 1,630 ? -17.5°
Maximum altitude 05:51:19 12° 270° (W) 1,540 ? -17.6°
Drops below altitude 10° 05:52:34 10° 291° (WNW) 1,635 ? -17.7°
Sets 05:55:54 0° 326° (NNW) 2,520 ? -17.9°
